This is the latest recevied weather packets stored in our database for station/object OK3MS-5. If no packets are shown the sender has not sent any weather packets the latest 10 day(s).
| Time | Temp. | Humidity | Pressure | Rain* | Wind** | Luminosity | Snow |
|---|---|---|---|---|---|---|---|
| 1776975609 | 9.44° C | 43% | 1019.5 hPa | 0 mm | - | 0 W/m² | - |
| 1776975302 | 10° C | 42% | 1019.2 hPa | 0 mm | - | 0 W/m² | - |
| 1776975003 | 10° C | 43% | 1019.3 hPa | 0 mm | - | 0 W/m² | - |
| 1776974702 | 10.56° C | 39% | 1019.1 hPa | 0 mm | - | 0 W/m² | - |
| 1776974402 | 11.11° C | 39% | 1019.1 hPa | 0 mm | - | 0 W/m² | - |
| 1776974109 | 11.11° C | 38% | 1019 hPa | 0 mm | - | 0 W/m² | - |
| 1776973803 | 11.11° C | 38% | 1018.9 hPa | 0 mm | - | 0 W/m² | - |
| 1776973510 | 11.67° C | 38% | 1018.9 hPa | 0 mm | - | 0 W/m² | - |
| 1776973207 | 11.67° C | 37% | 1018.8 hPa | 0 mm | - | 0 W/m² | - |
| 1776972912 | 11.67° C | 37% | 1018.8 hPa | 0 mm | - | 0 W/m² | - |
| 1776972602 | 11.67° C | 36% | 1018.9 hPa | 0 mm | - | 0 W/m² | - |
| 1776972311 | 11.67° C | 37% | 1018.8 hPa | 0 mm | - | 0 W/m² | - |
| 1776972004 | 11.67° C | 36% | 1018.7 hPa | 0 mm | - | 0 W/m² | - |
| 1776971712 | 12.22° C | 36% | 1018.8 hPa | 0 mm | - | 0 W/m² | - |
| 1776971403 | 11.67° C | 36% | 1018.7 hPa | 0 mm | - | 0 W/m² | - |
| 1776971106 | 11.67° C | 34% | 1018.7 hPa | 0 mm | - | 0 W/m² | - |
| 1776970808 | 12.22° C | 34% | 1018.5 hPa | 0 mm | - | 0 W/m² | - |
| 1776970502 | 12.22° C | 34% | 1018.5 hPa | 0 mm | - | 0 W/m² | - |
| 1776970203 | 12.22° C | 33% | 1018.5 hPa | 0 mm | - | 0 W/m² | - |
| 1776969903 | 12.78° C | 33% | 1018.4 hPa | 0 mm | - | 0 W/m² | - |
| 1776969604 | 12.78° C | 32% | 1018.3 hPa | 0 mm | - | 0 W/m² | - |
| 1776969303 | 12.78° C | 32% | 1018.2 hPa | 0 mm | - | 0 W/m² | - |
| 1776969002 | 13.33° C | 31% | 1018 hPa | 0 mm | - | 0 W/m² | - |
| 1776968703 | 13.33° C | 31% | 1017.9 hPa | 0 mm | - | 0 W/m² | - |
| 1776968411 | 13.33° C | 30% | 1017.8 hPa | 0 mm | - | 1 W/m² | - |
* Rain latest hour (hover to see other rain measurements)
** Current wind speed in m/s (hover to see current wind gust speed)